CZ-6A DEB

Satellite information

Favourite Embed

Satellite Type and Status

DEBRISIN ORBIT

Key statistics

Satellite CZ-6A DEB at a glance.

Uptime

494

Days in orbit

Revolutions

≈ 14.2

Per day

Orbit

LEO

Low Earth Orbit

Inclination

89.0

Latest

Satellite identification and parameters

Extended collection of information and parameters for CZ-6A DEB.

Object identification

Identified? True

Debris? True

Object name: CZ-6A DEB

International designator: 2024-140NX

Object number (NORAD): 61105

Object ID (CCSDS): 61105

Country: PEOPLES REPUBLIC OF CHINA (PRC)

Current information (Y/N): Y

RCS size: SMALL

Orbital parameters

Period: 101.23 minutes

Inclination: 89.0027 deg

SMA: 7195.019 km

Apoapsis: 849.645 km

Periapsis: 784.123 km

RAAN: 295.8184 deg

Eccentricy: 0.00455323

Argument of periapsis: 84.404 deg

Mean anomaly: 276.2342 deg

Mean motion: 14.225084 rev/day

Mean motion (dot): 0.00003775 rev/day2

B* drag term: 0.0016685548 1/REarth

Two-line elements (TLE)

Creation date: Dec. 12, 2025, 10:14 a.m.

Reference frame: TEME

Reference center: EARTH

Epoch: Dec. 12, 2025, 3:18 a.m. UTC

TLE line 0: 0 CZ-6A DEB

TLE line 1: 1 61105U 24140NX 25346.13803007 .00003775 00000-0 16686-2 0 9997

TLE line 2: 2 61105 89.0027 295.8184 0045532 84.4040 276.2342 14.22508400 66955

Live tracking on map

Real-time ground track for satellite CZ-6A DEB.

In-orbit conjunctions

A list of the most updated potential collisions computed for object CZ-6A DEB.

Target Orbit TCA Probability of collision Miss distance Type
SL-16 DEB LEO 2025-07-31 23:49:13 0.0002814115 12.0 (m) DEBRIS
CZ-6A DEB SSO 2025-06-24 13:23:10 0.0001297662 554.0 (m) DEBRIS
FENGYUN 1C DEB SSO 2025-02-18 00:25:56 0.0001615637 167.0 (m) DEBRIS
NOAA 16 DEB SSO 2025-01-21 01:25:50 0.0003101544 372.0 (m) DEBRIS
COSMOS 1818 LEO 2025-01-08 00:38:26 0.0004351953 334.0 (m) PAYLOAD

Associated space launch

18 Low Earth Orbit communication satellites with Ku, Q and V band payloads for the G60 constellation operated by Shanghai Spacecom Satellite Technology (SSST) with funding backed by the Shanghai local government. Initial constellation will consist of 1296 satellites by 2027 with long term plans to expand it to 12000 satellites.

CZ-6A DEB was lifted into orbit during the mission ‘Long March 6A | G60 Polar Group 01’, on board a Long March 6A space rocket.

The launch took place on Aug. 6, 2024, 6:42 a.m. from Launch Complex 9A.

For more information about the launch, click the button.

Launch to space Long March 6A | G60 Polar Group 01
Long March 6A | G60 Polar Group 01

Agency: N/A

Status: Launch Successful

Launch date: Aug. 6, 2024, 6:42 a.m. UTC

Rocket: Long March 6A

Launch pad: Launch Complex 9A

Location: Taiyuan Satellite Launch Center, People's Republic of China

...

Latest news about this satellite

News about space launch
Brightness of first Chinese broadband constellation satellites alarms astronomers

The first satellites of a Chinese broadband constellation are significantly brighter than those of Western systems, posing a new challenge for astronomers.

News about space launch
Chinese rocket stage breaks up into cloud of more than 700 pieces of space debris

HELSINKI — A Chinese Long March 6A rocket’s upper stage has fragmented into a cloud of over 700 pieces of space debris, adding to concerns about long-term orbital safety. China […]

News about space launch
China's Thousand Sails Megaconstellation Kicks Off with Dangerous Debris Field

China's Thousand Sails Megaconstellation Kicks Off with Dangerous Debris Field


Newsletter sign-up

Weekly statistics, charts and insights to help you stay on top of the space industry.